Powrót do katalogu

FENGYUN 2E

AktywnyPogodaGEO
NORAD 33463·PAYLOAD·🇨🇳 China

Wystrzelony Dec 23, 2008 z Xichang Satellite Launch Center

Loading…

TLE

ŚwieżeSource: Space-Track

Epoka: Sep 14, 2026, 11:53 UTC

1 33463U 08066A   26257.49557660  .00000010  00000-0  00000-0 0  9994
2 33463   9.4676  53.3734 0000575 141.7932 234.4848  0.99117948 64890

Śledź FENGYUN 2E w czasie rzeczywistym z AllMySat

Download on the App Store